CW7625 Weather Reports


Display with metric or nautical units.
time (UTC)temp
F
wind
direction
speed
MPH
gust
MPH
rain 1hr
in
rain 24hr
in
rain mn
in
humidity
%
barometer
mb
20260505235044 80 219 0.0 1.0 0.00 0.00 0.00 81 1002.4
20260505234044 80 219 1.0 3.0 0.00 0.00 0.00 79 1002.5
20260505233044 80 219 1.0 5.0 0.00 0.00 0.00 77 1002.5
20260505232044 81 189 1.0 5.0 0.00 0.00 0.00 76 1002.2
20260505231114 81 207 0.0 6.0 0.00 0.00 0.00 76 1002.0
20260505225114 81 216 0.0 5.0 0.00 0.00 0.00 75 1002.1
20260505224044 81 242 2.0 6.0 0.00 0.00 0.00 75 1002.1
20260505223044 81 209 2.0 6.0 0.00 0.00 0.00 74 1002.1
20260505221114 82 251 4.0 5.0 0.00 0.00 0.00 76 1002.3
20260505220044 82 238 1.0 8.0 0.00 0.00 0.00 74 1002.2
20260505215114 82 242 1.0 6.0 0.00 0.00 0.00 74 1002.1
20260505214045 82 217 1.0 6.0 0.00 0.00 0.00 75 1002.4
20260505213044 82 160 5.0 9.0 0.00 0.00 0.00 74 1002.6
20260505212044 81 235 3.0 8.0 0.00 0.00 0.00 74 1002.7
20260505211044 81 210 1.0 6.0 0.00 0.00 0.00 74 1002.8
20260505210044 81 215 0.0 9.0 0.00 0.00 0.00 74 1002.9
20260505205044 82 216 4.0 11.0 0.00 0.00 0.00 73 1002.6
20260505204044 81 234 1.0 9.0 0.00 0.00 0.00 74 1002.8
20260505203044 80 252 1.0 9.0 0.00 0.00 0.00 75 1002.8
20260505202114 80 217 4.0 9.0 0.00 0.00 0.00 73 1002.6
20260505201044 81 217 1.0 10.0 0.00 0.00 0.00 73 1002.8
20260505200115 81 240 8.0 12.0 0.00 0.00 0.00 73 1002.7
20260505194114 81 156 5.0 10.0 0.00 0.00 0.00 75 1002.8
20260505193045 81 196 2.0 10.0 0.00 0.00 0.00 74 1002.9
20260505192044 82 216 2.0 13.0 0.00 0.00 0.00 71 1002.9
20260505191044 81 273 11.0 12.0 0.00 0.00 0.00 72 1002.8
20260505190044 81 165 2.0 15.0 0.00 0.00 0.00 75 1003.2
20260505185044 80 211 3.0 14.0 0.00 0.00 0.00 74 1002.9
20260505184044 80 158 6.0 8.0 0.00 0.00 0.00 76 1002.9
20260505183044 80 271 3.0 11.0 0.00 0.00 0.00 76 1003.1
20260505182045 80 234 1.0 9.0 0.00 0.00 0.00 75 1002.8
20260505180045 78 147 1.0 8.0 0.00 0.00 0.00 78 1002.7
20260505175045 78 227 2.0 10.0 0.00 0.00 0.00 78 1003.5
20260505174045 78 215 3.0 10.0 0.00 0.00 0.00 79 1003.5
20260505173045 77 174 0.0 10.0 0.00 0.00 0.00 81 1003.5
20260505171045 76 245 4.0 11.0 0.00 0.00 0.00 81 1003.4
20260505165045 75 248 2.0 7.0 0.00 0.00 0.00 83 1003.6
20260505164045 74 238 2.0 10.0 0.00 0.00 0.00 84 1003.6
20260505162045 74 224 0.0 11.0 0.00 0.00 0.00 84 1003.5
20260505152045 72 196 1.0 7.0 0.00 0.00 0.00 85 1003.7
20260505151045 72 227 1.0 6.0 0.00 0.00 0.00 85 1003.8
20260505123045 70 216 1.0 3.0 0.00 0.00 0.00 86 1003.4
20260505122045 70 221 3.0 5.0 0.00 0.00 0.00 85 1003.4
20260505121045 70 205 3.0 6.0 0.00 0.00 0.00 85 1003.3
20260505115045 70 227 0.0 4.0 0.00 0.00 0.00 85 1003.0
20260505114045 70 263 3.0 6.0 0.00 0.00 0.00 85 1002.9
20260505113046 70 235 3.0 6.0 0.00 0.00 0.00 85 1003.0
20260505112045 70 226 2.0 5.0 0.00 0.00 0.00 85 1003.1
20260505111045 70 238 1.0 8.0 0.00 0.00 0.00 85 1002.9
20260505102045 69 251 1.0 6.0 0.00 0.00 0.00 85 1002.8
20260505100046 69 234 1.0 5.0 0.00 0.00 0.00 84 1002.9
20260505095046 69 219 0.0 4.0 0.00 0.00 0.00 84 1002.9
20260505094046 69 242 1.0 6.0 0.00 0.00 0.00 84 1003.0
20260505092046 69 279 1.0 5.0 0.00 0.00 0.00 84 1002.9
20260505091046 68 231 2.0 6.0 0.00 0.00 0.00 84 1003.0
20260505090045 68 242 0.0 6.0 0.00 0.00 0.00 83 1003.2
20260505085046 68 241 0.0 9.0 0.00 0.00 0.00 83 1003.3
20260505084045 68 202 2.0 5.0 0.00 0.00 0.00 83 1003.5
20260505082045 68 204 2.0 9.0 0.00 0.00 0.00 83 1003.4
20260505081045 68 234 2.0 6.0 0.00 0.00 0.00 83 1003.6
20260505080046 68 213 2.0 4.0 0.00 0.00 0.00 82 1003.5
20260505075046 68 212 0.0 9.0 0.00 0.00 0.00 82 1003.6
20260505073046 68 226 2.0 7.0 0.00 0.00 0.00 81 1004.0
20260505072046 68 192 5.0 6.0 0.00 0.00 0.00 81 1004.1
20260505071046 67 232 2.0 5.0 0.00 0.00 0.00 80 1004.2
20260505070046 68 232 1.0 4.0 0.00 0.00 0.00 80 1004.4
20260505065046 68 232 0.0 3.0 0.00 0.00 0.00 79 1004.6
20260505064046 68 232 1.0 4.0 0.00 0.00 0.00 78 1004.7
20260505063046 68 238 1.0 4.0 0.00 0.00 0.00 78 1004.7
20260505062046 68 176 1.0 5.0 0.00 0.00 0.00 77 1004.8
20260505061046 68 254 0.0 3.0 0.00 0.00 0.00 77 1004.8
20260505060046 68 254 2.0 4.0 0.00 0.00 0.00 77 1004.9
20260505055046 67 236 0.0 3.0 0.00 0.00 0.00 76 1005.0
20260505054046 67 236 0.0 3.0 0.00 0.00 0.00 76 1005.2
20260505053046 67 265 2.0 2.0 0.00 0.00 0.00 76 1005.2
20260505052046 67 265 0.0 3.0 0.00 0.00 0.00 75 1005.1
20260505051046 67 265 2.0 2.0 0.00 0.00 0.00 76 1005.3
20260505050116 68 265 0.0 1.0 0.00 0.00 0.00 75 1005.3
20260505041046 66 265 0.0 3.0 0.00 0.00 0.00 79 1005.8
20260505040046 65 279 0.0 1.0 0.00 0.00 0.00 82 1005.9
20260505034046 64 279 0.0 0.0 0.00 0.00 0.00 83 1005.9
20260505033046 64 279 0.0 0.0 0.00 0.00 0.00 85 1005.9
20260505032047 64 279 0.0 0.0 0.00 0.00 0.00 83 1006.0
20260505031046 64 279 0.0 0.0 0.00 0.00 0.00 82 1005.9
20260505030046 65 279 0.0 0.0 0.00 0.00 0.00 81 1005.8
20260505025046 65 279 0.0 0.0 0.00 0.00 0.00 81 1005.7
20260505024046 66 279 0.0 1.0 0.00 0.00 0.00 80 1005.4
20260505023046 67 279 0.0 1.0 0.00 0.00 0.00 78 1005.6
20260505022047 67 279 0.0 1.0 0.00 0.00 0.00 76 1005.7
20260505020047 69 279 1.0 1.0 0.00 0.00 0.00 74 1005.5
20260505015047 70 279 0.0 1.0 0.00 0.00 0.00 72 1005.4
20260505014047 70 279 0.0 3.0 0.00 0.00 0.00 71 1005.3
20260505012046 72 279 1.0 2.0 0.00 0.00 0.00 67 1005.0
20260505011046 73 279 0.0 1.0 0.00 0.00 0.00 66 1005.0
20260505010046 74 279 0.0 5.0 0.00 0.00 0.00 63 1004.9
20260505005046 74 208 1.0 5.0 0.00 0.00 0.00 61 1004.7
20260505004046 75 225 0.0 4.0 0.00 0.00 0.00 62 1004.8
20260505002047 76 329 3.0 8.0 0.00 0.00 0.00 59 1005.1
20260505001047 76 194 2.0 6.0 0.00 0.00 0.00 59 1005.2
20260505000046 77 182 2.0 9.0 0.00 0.00 0.00 57 1005.3